Wind_Speed
25 24 22 19 19 17 14 12 11 8 5 3 4 6 8 9 10 12 14 17 19 22 25 28 30 34 36 36 39 43 49 49 47 49 50 51 52 47 47 47 43 37 37 43 50
25 24 24 23 21 21 18 11 10 10 9 10 11 13 14 16 16 19 21 20 22 24 26 29 32 35 37 37 42 46 49 48 46 49 53 55 57 58 55 52 51 47 47 43 54
25 24 24 24 23 20 22 13 8 8 9 11 13 15 18 19 18 23 25 29 30 31 32 34 36 39 42 44 45 47 51 50 52 53 54 56 58 60 61 60 55 60 61 56 51
24 24 24 26 26 25 23 18 10 10 11 13 15 18 21 23 25 28 29 31 33 35 38 40 42 45 48 50 52 53 53 55 56 58 60 62 62 62 63 62 64 66 70 71 68
23 23 23 23 24 25 25 24 17 13 15 18 20 23 25 26 27 30 32 33 34 37 40 43 46 47 49 47 47 51 54 57 58 61 65 67 70 68 65 65 65 70 75 78 76
22 23 23 23 23 24 25 24 22 21 21 22 25 26 27 30 30 34 36 37 39 41 45 46 47 48 46 46 49 49 52 54 57 60 63 67 71 71 68 66 68 69 73 82 84
22 23 23 23 24 24 25 25 25 27 25 24 26 27 30 36 38 37 41 42 42 47 48 50 51 49 47 47 48 50 51 51 51 53 60 57 71 74 73 70 69 66 69 75 79
22 23 25 25 26 27 27 28 30 30 32 28 30 31 34 40 39 44 45 46 48 50 52 51 50 49 49 49 46 45 45 48 40 43 47 48 65 59 58 68 78 72 70 70 74
23 24 26 27 28 29 30 31 32 34 38 35 35 35 41 42 43 47 50 51 52 56 55 54 55 49 48 46 44 39 45 44 44 42 48 50 58 55 52 52 59 71 77 75 78
24 25 28 30 31 33 34 34 33 37 41 39 34 39 44 47 50 49 52 55 58 59 54 55 50 48 41 41 43 44 45 46 47 44 49 52 57 58 44 36 40 38 49 79 80
27 28 30 32 33 35 37 37 38 38 43 37 37 41 50 49 50 56 59 60 61 60 53 47 47 43 40 35 36 39 43 49 53 55 58 56 57 57 51 43 49 55 61 58 77
29 31 33 35 37 37 38 41 43 42 38 40 41 48 47 48 50 55 61 65 62 51 44 41 37 34 31 33 37 38 45 53 57 56 44 48 53 53 57 56 52 56 56 52 63
32 34 35 37 39 41 44 44 44 44 43 44 46 45 47 48 54 61 63 66 64 48 39 33 27 26 28 32 35 37 46 45 44 51 34 42 47 41 62 61 66 58 55 61 54
35 36 38 40 42 42 42 43 44 44 48 54 50 49 49 53 58 59 60 61 57 43 29 25 24 26 29 29 32 37 32 37 40 39 37 35 41 38 39 57 60 52 56 54 46
38 40 40 39 39 40 42 43 44 46 47 48 47 47 51 55 55 48 46 42 31 23 20 17 20 23 26 26 29 31 31 30 31 25 33 25 31 12 25 26 40 40 37 38 46
39 38 38 40 42 43 45 46 46 43 43 41 42 45 48 45 32 33 33 29 25 21 19 18 16 23 26 26 25 25 29 27 23 32 27 9 22 10 16 24 28 37 39 39 43
34 37 39 42 44 46 46 43 43 41 36 37 37 40 42 28 27 28 25 20 22 24 20 18 19 27 31 29 23 24 26 26 24 25 25 19 21 25 22 27 23 35 36 43 44
34 38 41 41 42 42 43 41 38 34 32 35 35 38 32 26 25 26 23 23 25 26 26 27 22 25 28 27 28 24 27 28 33 31 38 28 31 25 29 34 30 35 34 33 42
36 39 39 41 43 40 38 37 35 35 33 33 38 34 28 28 29 27 25 26 26 28 29 29 24 18 28 26 30 23 25 25 34 33 40 32 23 21 26 35 32 34 46 43 40
37 37 40 39 41 40 37 37 38 37 36 38 38 36 28 29 29 28 25 24 22 29 30 30 24 15 19 24 22 29 25 28 29 39 40 36 31 33 33 37 36 32 32 34 38
36 34 34 38 38 41 41 36 38 36 37 38 37 38 27 27 27 29 25 22 27 29 31 34 26 16 19 23 24 28 31 30 29 31 40 42 35 33 33 38 40 37 33 35 43
29 29 32 35 37 37 35 35 38 36 36 37 40 39 26 26 23 27 26 29 32 30 29 31 31 26 19 22 28 30 29 29 34 38 42 43 39 38 37 37 42 41 33 33 40
27 30 35 37 39 40 39 39 37 35 36 38 40 44 26 24 26 24 25 25 28 31 32 32 33 32 26 25 25 26 27 33 36 44 47 47 44 41 41 38 37 31 21 20 20
29 31 34 37 41 41 39 37 36 38 37 39 41 44 30 20 25 27 25 30 28 29 29 33 31 33 36 34 32 31 32 38 43 46 48 50 49 37 28 28 28 19 17 26 26
31 34 35 36 39 41 39 38 40 39 39 38 37 40 35 23 22 22 25 28 28 27 30 29 32 38 36 30 30 31 29 26 32 41 45 44 39 31 28 22 25 22 26 13 26
32 33 35 38 40 41 39 36 39 39 39 37 39 35 32 26 27 24 23 27 26 27 31 34 39 42 35 34 33 29 25 21 22 27 36 47 44 36 28 22 21 19 24 18 24
32 34 35 37 40 41 40 36 37 41 38 39 39 34 33 24 23 23 22 25 26 24 31 37 44 41 32 34 31 28 24 20 22 28 35 36 35 42 33 26 15 16 18 18 20
Wind_Direction
38 39 40 43 45 45 39 27 18 22 28 5 331 315 307 303 301 294 270 259 264 257 260 262 261 259 260 261 261 259 256 257 254 255 256 253 249 244 245 244 227 226 238 244 254
33 33 33 31 28 28 24 24 17 5 355 341 329 322 317 314 318 302 297 293 285 280 276 274 271 270 269 265 263 262 262 263 259 255 253 250 248 245 241 241 237 223 223 235 249
18 22 24 27 25 21 16 8 8 359 342 326 315 310 308 306 312 300 299 294 291 288 286 284 283 280 276 272 270 267 265 263 260 257 254 252 250 248 243 237 237 231 229 224 229
8 8 11 12 13 13 9 9 346 339 330 320 316 310 306 306 307 302 296 293 291 290 288 289 288 286 283 280 275 272 270 266 262 259 256 254 250 248 245 241 237 233 235 236 236
357 0 359 359 360 1 1 357 346 323 320 319 318 316 313 310 308 306 303 300 296 293 292 293 293 291 288 286 277 270 265 263 261 258 256 254 251 248 245 244 239 234 234 239 240
347 349 352 348 346 348 349 349 344 324 315 313 317 315 315 311 312 310 307 307 304 301 301 299 300 300 294 286 282 276 270 266 263 262 261 255 253 250 249 244 242 240 237 241 245
339 340 342 341 338 333 335 338 337 333 319 311 314 316 317 312 311 310 309 308 304 305 305 306 308 305 297 290 283 279 274 269 266 263 262 263 258 253 247 244 240 243 243 242 245
334 334 333 334 333 331 324 325 329 329 326 314 314 313 317 314 313 313 309 307 306 306 308 310 307 302 295 291 284 276 273 274 268 265 263 266 259 259 260 253 245 237 236 236 241
334 332 329 328 329 327 327 325 322 323 327 322 312 309 314 314 311 311 307 308 309 310 311 309 303 294 288 285 279 269 272 270 269 265 268 268 267 267 266 260 252 250 241 235 233
334 332 330 329 328 328 328 327 324 326 323 319 310 309 315 315 311 308 307 310 310 310 308 300 288 284 286 279 276 271 276 279 280 274 275 271 265 262 250 252 250 250 254 240 232
336 333 331 330 329 329 329 328 328 325 317 319 311 312 316 317 312 312 314 313 311 309 300 289 284 289 289 285 289 289 287 287 288 283 280 275 265 261 244 233 243 242 239 243 242
338 335 334 332 331 331 329 327 323 323 321 318 316 318 317 318 318 321 318 313 309 306 296 287 285 287 282 284 288 291 293 291 291 288 277 262 255 248 233 232 229 235 238 241 245
337 336 336 334 333 330 327 326 326 326 324 321 319 319 320 320 321 321 317 311 309 304 294 294 294 281 283 287 286 293 291 297 290 290 274 257 258 255 236 238 234 235 239 243 242
337 336 335 332 330 330 329 329 327 327 322 322 323 324 330 329 325 321 318 314 309 305 296 299 284 279 286 287 292 298 298 297 287 293 282 265 272 258 250 242 248 252 264 259 260
334 332 332 332 332 332 332 328 324 324 327 325 329 331 334 328 326 328 324 321 323 319 303 298 286 287 290 289 291 300 294 299 292 272 279 270 271 282 233 240 235 247 253 261 266
333 334 336 335 332 330 328 324 324 329 328 333 334 336 328 327 332 338 343 350 342 325 309 302 289 291 291 284 290 294 293 291 282 282 280 301 276 281 261 253 247 244 242 243 249
337 335 332 330 330 325 324 327 332 331 333 333 334 324 323 325 334 338 345 343 330 322 325 308 304 302 295 293 285 280 283 284 280 273 277 282 278 274 272 282 253 241 244 241 241
333 329 328 329 326 330 333 340 333 334 332 332 331 326 322 320 334 335 335 330 329 326 326 318 312 293 299 292 279 280 275 270 279 281 281 266 274 292 292 281 258 270 258 241 246
330 328 329 330 332 337 341 336 340 336 332 333 332 331 324 330 332 334 334 337 337 329 324 315 312 299 295 278 269 273 276 279 277 279 283 285 280 270 277 266 265 276 281 264 260
328 330 331 333 338 339 339 342 340 339 337 336 334 330 322 328 328 336 341 340 343 335 327 323 326 318 283 285 277 271 275 266 265 275 279 283 283 281 285 285 280 266 272 280 265
328 333 335 338 344 344 345 342 340 339 339 333 332 334 318 326 332 339 336 333 335 337 335 329 327 336 301 287 273 264 274 277 279 274 283 286 289 288 287 282 269 266 279 280 265
329 333 335 334 341 345 346 343 340 339 335 336 332 337 317 318 340 334 328 326 332 335 334 328 331 326 308 282 285 279 273 272 273 272 268 275 283 288 285 287 277 268 261 264 270
330 333 332 334 335 342 348 345 341 338 342 341 335 333 330 322 330 334 329 330 330 331 331 325 330 328 329 315 301 272 255 254 257 254 257 266 278 285 290 286 276 274 251 256 268
330 331 331 334 337 342 345 343 338 340 345 342 337 335 334 323 328 333 332 331 325 326 329 332 333 327 327 321 307 303 284 265 259 256 261 263 272 275 277 279 282 258 252 249 264
328 329 330 332 333 337 343 342 343 344 343 339 340 338 330 321 328 320 329 330 333 337 335 333 335 331 337 319 315 316 310 290 273 262 264 270 270 268 264 279 293 270 245 265 259
322 326 327 328 330 332 336 338 340 340 337 339 339 340 328 310 323 326 325 328 335 338 341 341 338 342 350 327 322 320 312 309 287 281 271 264 269 269 253 273 286 289 246 250 249
315 316 322 323 324 326 330 333 333 332 337 337 336 336 337 306 315 319 329 334 338 341 337 342 346 341 346 338 333 325 314 314 304 289 281 276 269 260 258 256 266 265 236 233 252
Height
5846 5843 5842 5841 5840 5839 5838 5837 5836 5835 5836 5837 5838 5838 5839 5840 5840 5841 5841 5842 5841 5841 5840 5840 5841 5840 5839 5840 5839 5838 5838 5843 5849 5850 5852 5857 5858 5866 5865 5868 5871 5875 5877 5876 5872
5848 5845 5843 5841 5840 5839 5839 5838 5837 5836 5836 5835 5835 5835 5836 5836 5837 5834 5834 5834 5834 5833 5833 5833 5832 5831 5831 5831 5829 5828 5829 5834 5836 5835 5836 5839 5842 5847 5853 5857 5862 5861 5863 5869 5867
5846 5845 5844 5843 5841 5840 5838 5837 5837 5836 5836 5835 5834 5833 5833 5833 5834 5829 5829 5827 5826 5825 5823 5822 5821 5820 5820 5818 5818 5818 5819 5820 5821 5822 5822 5824 5827 5831 5837 5848 5853 5849 5848 5848 5861
5847 5844 5842 5840 5839 5838 5838 5837 5836 5835 5834 5832 5831 5830 5829 5828 5828 5824 5823 5820 5818 5816 5814 5811 5810 5808 5806 5805 5803 5803 5805 5805 5807 5806 5806 5807 5810 5814 5819 5835 5839 5836 5835 5836 5840
5846 5844 5842 5840 5838 5836 5835 5833 5832 5832 5830 5828 5827 5825 5822 5822 5819 5816 5814 5811 5809 5806 5803 5800 5797 5794 5791 5790 5788 5786 5787 5787 5787 5788 5788 5789 5790 5795 5805 5815 5822 5823 5820 5821 5827
5845 5843 5841 5839 5837 5835 5833 5831 5829 5827 5825 5823 5820 5818 5816 5813 5813 5808 5804 5801 5797 5794 5791 5787 5784 5780 5777 5775 5772 5771 5769 5770 5771 5771 5771 5772 5771 5778 5791 5800 5801 5807 5811 5808 5812
5844 5841 5839 5837 5835 5833 5831 5829 5826 5823 5820 5818 5815 5812 5810 5804 5800 5800 5794 5790 5786 5781 5777 5771 5767 5763 5761 5759 5757 5755 5753 5754 5757 5758 5755 5752 5752 5758 5768 5776 5782 5788 5794 5797 5798
5842 5839 5836 5834 5832 5829 5826 5824 5821 5818 5815 5812 5808 5805 5802 5797 5793 5788 5783 5779 5774 5769 5763 5758 5753 5749 5744 5741 5741 5738 5736 5735 5747 5741 5743 5739 5735 5745 5749 5752 5756 5766 5771 5781 5787
5839 5836 5833 5830 5828 5825 5822 5819 5815 5811 5807 5804 5800 5797 5794 5789 5784 5779 5771 5766 5760 5753 5747 5742 5737 5735 5731 5728 5729 5728 5722 5724 5727 5732 5729 5726 5723 5731 5732 5731 5734 5737 5748 5759 5767
5836 5833 5829 5826 5823 5819 5816 5813 5810 5804 5798 5795 5793 5789 5783 5776 5770 5767 5759 5752 5745 5740 5735 5729 5724 5722 5720 5716 5715 5715 5712 5711 5711 5722 5713 5709 5708 5712 5712 5716 5716 5720 5722 5730 5743
5832 5828 5824 5821 5817 5813 5809 5805 5803 5802 5789 5788 5783 5778 5768 5765 5758 5747 5739 5737 5733 5727 5721 5715 5712 5709 5705 5704 5702 5701 5699 5695 5697 5696 5692 5692 5691 5696 5697 5702 5704 5703 5706 5710 5715
5827 5823 5819 5815 5810 5806 5801 5796 5792 5788 5785 5777 5773 5767 5761 5753 5746 5738 5729 5721 5716 5711 5705 5704 5702 5700 5698 5697 5693 5692 5687 5684 5679 5677 5674 5670 5669 5679 5681 5684 5686 5688 5692 5697 5703
5822 5818 5813 5808 5803 5798 5793 5787 5781 5776 5771 5768 5764 5756 5749 5744 5734 5727 5718 5705 5699 5695 5693 5691 5693 5690 5690 5689 5684 5685 5677 5673 5667 5660 5661 5658 5655 5659 5664 5667 5672 5678 5680 5686 5695
5818 5813 5809 5803 5799 5793 5786 5779 5773 5768 5761 5754 5749 5742 5738 5731 5723 5715 5704 5693 5683 5681 5683 5685 5683 5683 5682 5681 5677 5674 5670 5664 5658 5654 5649 5652 5645 5648 5653 5658 5664 5669 5671 5677 5679
5813 5807 5803 5798 5793 5786 5782 5774 5767 5761 5755 5747 5740 5735 5728 5719 5710 5706 5696 5686 5679 5675 5678 5679 5677 5677 5675 5673 5669 5665 5661 5658 5653 5648 5644 5645 5644 5643 5647 5649 5654 5660 5663 5665 5667
5807 5801 5796 5791 5785 5780 5773 5766 5759 5756 5746 5743 5735 5728 5722 5713 5707 5698 5689 5680 5675 5673 5672 5672 5673 5670 5668 5664 5662 5658 5655 5652 5648 5644 5640 5644 5641 5638 5641 5641 5643 5647 5650 5652 5654
5803 5797 5791 5786 5779 5773 5765 5760 5754 5748 5742 5737 5731 5723 5715 5709 5701 5694 5686 5681 5675 5671 5671 5669 5669 5664 5658 5657 5656 5652 5650 5645 5642 5639 5637 5639 5633 5629 5635 5634 5633 5633 5636 5637 5642
5799 5793 5787 5781 5775 5767 5759 5756 5750 5743 5737 5731 5725 5716 5709 5703 5696 5690 5684 5679 5675 5670 5665 5661 5662 5658 5655 5651 5648 5648 5644 5640 5633 5629 5626 5632 5624 5628 5628 5624 5623 5623 5626 5628 5627
5793 5788 5782 5774 5767 5763 5757 5752 5744 5738 5732 5726 5718 5710 5704 5698 5693 5687 5680 5675 5671 5665 5661 5655 5652 5653 5645 5643 5640 5642 5637 5636 5626 5624 5617 5620 5621 5621 5620 5617 5617 5616 5614 5612 5611
5788 5783 5775 5769 5763 5756 5753 5745 5738 5732 5726 5719 5713 5706 5699 5694 5689 5682 5678 5672 5668 5662 5655 5650 5644 5644 5640 5635 5635 5630 5631 5626 5623 5614 5609 5610 5611 5611 5611 5609 5608 5607 5605 5601 5600
5782 5777 5771 5763 5759 5751 5744 5739 5733 5727 5721 5715 5707 5700 5695 5689 5684 5679 5675 5670 5664 5659 5651 5643 5640 5641 5633 5629 5626 5624 5621 5618 5615 5611 5603 5598 5597 5604 5602 5598 5595 5595 5596 5591 5585
5777 5774 5767 5761 5757 5750 5743 5737 5730 5723 5717 5710 5701 5695 5689 5684 5681 5675 5670 5662 5658 5653 5649 5642 5635 5631 5630 5623 5619 5615 5613 5611 5606 5603 5598 5591 5587 5594 5591 5588 5582 5580 5585 5581 5575
5774 5769 5762 5756 5751 5745 5737 5731 5724 5719 5711 5703 5695 5687 5684 5680 5675 5672 5667 5662 5655 5649 5643 5638 5631 5623 5622 5617 5611 5607 5604 5599 5595 5591 5586 5583 5579 5583 5581 5575 5572 5572 5575 5572 5567
5766 5763 5758 5750 5744 5738 5734 5728 5722 5713 5706 5699 5691 5683 5679 5677 5671 5666 5663 5658 5652 5646 5641 5632 5626 5620 5613 5606 5598 5593 5591 5586 5582 5578 5577 5575 5569 5578 5573 5569 5566 5568 5568 5565 5560
5761 5756 5750 5746 5740 5734 5728 5723 5715 5709 5703 5695 5690 5680 5673 5671 5670 5663 5659 5654 5645 5640 5635 5629 5624 5614 5606 5597 5590 5584 5578 5574 5570 5569 5565 5565 5564 5567 5564 5562 5560 5560 5563 5563 5557
5755 5751 5748 5742 5736 5731 5725 5720 5713 5706 5700 5694 5686 5679 5671 5667 5663 5659 5655 5648 5643 5637 5632 5625 5617 5606 5599 5590 5582 5575 5570 5565 5561 5559 5555 5552 5553 5555 5555 5556 5554 5554 5555 5559 5556
5749 5745 5741 5737 5730 5725 5719 5714 5709 5701 5696 5688 5682 5676 5668 5664 5660 5656 5650 5645 5640 5634 5627 5619 5608 5602 5596 5587 5577 5570 5564 5559 5555 5550 5544 5541 5544 5542 5547 5551 5552 5549 5549 5554 5550